This demonstration page uses our WeatherBlox Daily Observations layout. Learn more.

Left ArrowRight Arrow

Hourly Observations for June 15, 2015

Temp ( °F °C ) Dew Point ( °F °C ) Humidity (%) Winds ( mph kmh ) Pressure ( in mb ) Visibility ( mi km ) Precip ( " mm )
12:59 am 00:59 Partly Cloudy 81 27.2 76 24.4 85 85 Calm 30.05 1018 8 13 0.00 0.00
1:59 am 01:59 Partly Cloudy 82 27.8 76 24.4 82 82 Calm 30.05 1018 8 13 0.00 0.00
2:59 am 02:59 Mostly Clear 82 27.8 76 24.4 82 82 Calm 30.03 1017 8 13 0.00 0.00
3:59 am 03:59 Mostly Clear 82 27.8 76 24.4 82 82 SSW 3 6 30.03 1017 8 13 0.00 0.00
4:59 am 04:59 Mostly Clear 82 27.8 75 23.9 79 79 S 5 7 30.03 1017 9 14 0.00 0.00
5:59 am 05:59 Partly Cloudy 81 27.2 75 23.9 82 82 SSW 5 7 30.04 1017 7 11 0.00 0.00
6:59 am 06:59 Partly Cloudy 82 27.8 76 24.4 82 82 VRB 5 7 30.03 1017 7 11 0.00 0.00
7:59 am 07:59 Mostly Cloudy 84 28.9 76 24.4 77 77 VRB 3 6 30.04 1017 7 11 0.00 0.00
8:59 am 08:59 Mostly Cloudy 87 30.6 77 25 72 72 WSW 7 11 30.04 1017 7 11 0.00 0.00
9:59 am 09:59 Mostly Cloudy 91 32.8 76 24.4 61 61 W 9 15 30.03 1017 8 13 0.00 0.00
10:59 am 10:59 Mostly Cloudy 93 33.9 76 24.4 58 58 W 8 13 30.03 1017 9 14 0.00 0.00
11:59 am 11:59 Mostly Cloudy 95 35 76 24.4 54 54 W 7 11 30.02 1017 10 16 0.00 0.00
12:59 pm 12:59 Mostly Cloudy 95 35 76 24.4 54 54 WSW 12 19 30.02 1017 7 11 0.00 0.00
1:59 pm 13:59 Mostly Cloudy 98 36.7 76 24.4 49 49 W 12 19 30.00 1016 7 11 0.00 0.00
2:59 pm 14:59 Mostly Cloudy 98 36.7 75 23.9 48 48 WNW 13 20 29.99 1016 7 11 0.00 0.00
3:59 pm 15:59 Mostly Cloudy 97 36 72 22.2 45 45 WSW 9 15 29.98 1015 7 11 0.00 0.00
4:59 pm 16:59 Mostly Cloudy 97 36.1 77 25 53 53 WSW 9 15 29.96 1015 7 11 0.00 0.00
5:59 pm 17:59 Mostly Cloudy 96 35.6 73 22.8 47 47 W 6 9 29.95 1014 7 11 0.00 0.00
6:59 pm 18:59 Partly Cloudy 95 35 72 22.2 47 47 W 7 11 29.95 1014 7 11 0.00 0.00
7:59 pm 19:59 Partly Cloudy 93 33.9 75 23.9 56 56 WSW 12 19 29.96 1014 10 16 0.00 0.00
8:59 pm 20:59 Mostly Cloudy 91 32.8 75 23.9 59 59 SW 5 7 29.96 1015 10 16 0.00 0.00
9:59 pm 21:59 Mostly Cloudy 88 31.1 76 24.4 68 68 SW 5 7 29.98 1015 10 16 0.00 0.00
10:59 pm 22:59 Mostly Cloudy 87 30.6 78 25.6 75 75 WSW 5 7 30.00 1016 10 16 0.00 0.00
11:59 pm 23:59 Mostly Cloudy 81 27.2 81 27.2 100 100 ENE 9 15 30.02 1017 10 16 0.00 0.00

Powered by AerisWeather